Overview Statistics Trail Chart Weather Telemetry Raw packets
 

This is the latest recevied weather packets stored in our database for station/object KB1RMA-4. If no packets are shown the sender has not sent any weather packets the latest 10 day(s).

<< 84 85 86 87 88 89 90 >>
Time Temp. Humidity Pressure Rain* Wind** Luminosity Snow
1788017682 23.33° C 39% 1022.7 hPa 0 mm - 708 W/m² -
1788017378 23.33° C 39% 1022.7 hPa 0 mm - 726 W/m² -
1788017075 23.33° C 37% 1023.1 hPa 0 mm - 730 W/m² -
1788016774 23.89° C 40% 1022.8 hPa 0 mm - 737 W/m² -
1788016472 24.44° C 42% 1022.9 hPa 0 mm - 727 W/m² -
1788016167 23.33° C 44% 1022.9 hPa 0 mm - 701 W/m² -
1788015866 23.33° C 44% 1023 hPa 0 mm - 694 W/m² -
1788015561 22.78° C 45% 1023 hPa 0 mm - 721 W/m² -
1788015256 22.78° C 45% 1023 hPa 0 mm - 713 W/m² -
1788014955 22.78° C 44% 1023.1 hPa 0 mm - 725 W/m² -
1788014654 22.78° C 46% 1023 hPa 0 mm - 713 W/m² -
1788014349 22.78° C 45% 1023.1 hPa 0 mm - 722 W/m² -
1788014045 22.22° C 45% 1023.2 hPa 0 mm - 715 W/m² -
1788013744 22.22° C 46% 1023.1 hPa 0 mm - 725 W/m² -
1788013444 22.78° C 46% 1023.2 hPa 0 mm - 699 W/m² -
1788013143 21.67° C 48% 1023 hPa 0 mm - 699 W/m² -
1788012843 21.67° C 50% 1022.8 hPa 0 mm - 703 W/m² -
1788012537 21.11° C 53% 1023.2 hPa 0 mm - 694 W/m² -
1788012233 20.56° C 52% 1023 hPa 0 mm - 334 W/m² -
1788011932 20.56° C 55% 1022.8 hPa 0 mm - 371 W/m² -
1788011630 20° C 55% 1022.9 hPa 0 mm - 92 W/m² -
1788011337 20° C 58% 1022.9 hPa 0 mm - 101 W/m² -
1788011025 20° C 57% 1023 hPa 0 mm - 62 W/m² -
1788010721 20° C 57% 1022.9 hPa 0 mm - 65 W/m² -
1788010419 19.44° C 59% 1022.9 hPa 0 mm - 89 W/m² -

* Rain latest hour (hover to see other rain measurements)
** Current wind speed in m/s (hover to see current wind gust speed)